This is the latest recevied weather packets stored in our database for station/object E23JWE-1. If no packets are shown the sender has not sent any weather packets the latest 1 day(s).
| Time | Temp. | Humidity | Pressure | Rain* | Wind** | Luminosity | Snow |
|---|---|---|---|---|---|---|---|
| 1778082436 | 31.67° C | 99% | 1008 hPa | - | - | 0 W/m² | - |
| 1778075134 | 31.11° C | 99% | 1006 hPa | - | - | 0 W/m² | - |
| 1778069657 | 31.11° C | 99% | 1006 hPa | - | - | 0 W/m² | - |
| 1778066006 | 31.67° C | 98% | 1006 hPa | - | - | 1 W/m² | - |
| 1778064180 | 31.67° C | 91% | 1006 hPa | - | - | 4 W/m² | - |
| 1778062354 | 31.67° C | 91% | 1005 hPa | - | - | 9 W/m² | - |
| 1778058703 | 32.22° C | 86% | 1006 hPa | - | - | 23 W/m² | - |
| 1778053226 | 32.22° C | 91% | 1006 hPa | - | - | 45 W/m² | - |
| 1778049575 | 32.78° C | 93% | 1007 hPa | - | - | 41 W/m² | - |
| 1778045923 | 32.22° C | 95% | 1008 hPa | - | - | 39 W/m² | - |
| 1778044098 | 32.22° C | 97% | 1009 hPa | - | - | 37 W/m² | - |
| 1778042272 | 32.22° C | 98% | 1009 hPa | - | - | 34 W/m² | - |
| 1778040447 | 31.67° C | 99% | 1009 hPa | - | - | 31 W/m² | - |
| 1778038621 | 31.67° C | 99% | 1009 hPa | - | - | 27 W/m² | - |
| 1778036795 | 31.67° C | 99% | 1009 hPa | - | - | 25 W/m² | - |
| 1778034970 | 31.67° C | 99% | 1009 hPa | - | - | 26 W/m² | - |
| 1778033144 | 31.67° C | 99% | 1009 hPa | - | - | 25 W/m² | - |
| 1778031319 | 31.67° C | 99% | 1009 hPa | - | - | 19 W/m² | - |
| 1778029493 | 31.11° C | 99% | 1009 hPa | - | - | 24 W/m² | - |
| 1778027667 | 30.56° C | 99% | 1008 hPa | - | - | 14 W/m² | - |
| 1778020365 | 30.56° C | 99% | 1008 hPa | - | - | 0 W/m² | - |
| 1778014888 | 31.11° C | 99% | 1007 hPa | - | - | 0 W/m² | - |
| 1778009411 | 31.11° C | 99% | 1008 hPa | - | - | 0 W/m² | - |
| 1778002108 | 30° C | 99% | 1009 hPa | - | - | 0 W/m² | - |
* Rain since midnight (hover to see other rain measurements)
** Current wind speed in m/s (hover to see current wind gust speed)